Weather in Kalachinsk

Russia / Omsk Oblast     55°03′09″N   74°34′54″E
temp.,
°C
wind,
m/s
gust,
m/s
humid.,
%
clouds,
%
prec.,
mm/h
press.,
hPa
HPBL,
m
21 january, thu
thu2100:00−17se61095100 1.6 1016331
03:00−17s4996100 0.1 1015226
06:00−19sw41095100 0.1 1016218
09:00−21sw5119798 0.0 1015198
12:00−19sw599499 0.0 1016250
15:00−18sw4894100 0.0 1015267
18:00−20sw3697100 0.0 1014137
21:00−21sw3798100 0.0 1013162
22 january, fri
fri2200:00−24wsw479798 0.0 1013120
03:00−26wsw479888 0.0 1013129
06:00−28w479853 0.0 101490
09:00−29wsw449813 0.0 101578
12:00−26wsw47967 0.0 1016203
15:00−25sw479517 0.0 1017237
18:00−27wsw369836 0.0 1018106
21:00−25wsw349894 0.1 1020115
23 january, sat
sat2300:00−25wsw249897 0.1 1021104
03:00−24wsw239892 0.1 102348
06:00−25w229889 0.1 102420
09:00−27nw239895 0.1 102739
12:00−29nw359793 0.1 1029161
15:00−30wnw359645 0.0 1031194
18:00−33nw349656 0.0 103361
21:00−35nw349677 0.0 103645
24 january, sun
sun2400:00−37wnw349649 0.0 103747
03:00−39wnw33972 0.0 103935
06:00−40wnw33976 0.0 104028
09:00−40wnw239717 0.0 104118
12:00−37wnw119413 0.0 104267
15:00−35wsw11950 0.0 104335
18:00−38ssw11970 0.0 104419
21:00−38sse22940 0.0 104419
25 january, mon
mon2500:00−38se23959 0.0 104419
03:00−36se349647 0.0 104347
06:00−33se469474 0.0 1042177
09:00−30se5893100 0.0 1040232
12:00−28se5997100 0.2 1038257
15:00−25se5898100 0.4 1036279
18:00−24se5898100 1.0 1034264
21:00−22se4698100 0.8 1032235